Date_Time,Julian_Date,Latitude,Longitude,Instrument_Depth,Water_Salinity
(yyyy-mm-dd hh:mn:ss UTC),(JD),(+ deg. North),(+ deg. East),(m),(ppt)
1983-06-30 20:30:00 UTC,2445516.354167,29.5531,-94.1969,0036,0.2140
1983-06-30 21:00:00 UTC,2445516.375000,29.5531,-94.1969,0036,0.2150
1983-06-30 21:30:00 UTC,2445516.395833,29.5531,-94.1969,0036,0.2160
1983-06-30 22:00:00 UTC,2445516.416667,29.5531,-94.1969,0036,0.2170
1983-06-30 22:30:00 UTC,2445516.437500,29.5531,-94.1969,0036,0.2180
1983-06-30 23:00:00 UTC,2445516.458333,29.5531,-94.1969,0036,0.2180
1983-06-30 23:30:00 UTC,2445516.479167,29.5531,-94.1969,0036,0.2190
1983-07-01 00:00:00 UTC,2445516.500000,29.5531,-94.1969,0036,0.2200
1983-07-01 00:30:00 UTC,2445516.520833,29.5531,-94.1969,0036,0.2200
1983-07-01 01:00:00 UTC,2445516.541667,29.5531,-94.1969,0036,0.2190
1983-07-01 01:30:00 UTC,2445516.562500,29.5531,-94.1969,0036,0.2170
1983-07-01 02:00:00 UTC,2445516.583333,29.5531,-94.1969,0036,0.2140
1983-07-01 02:30:00 UTC,2445516.604167,29.5531,-94.1969,0036,0.2120
1983-07-01 03:00:00 UTC,2445516.625000,29.5531,-94.1969,0036,0.2080
1983-07-01 03:30:00 UTC,2445516.645833,29.5531,-94.1969,0036,0.2070
1983-07-01 04:00:00 UTC,2445516.666667,29.5531,-94.1969,0036,0.2040
1983-07-01 04:30:00 UTC,2445516.687500,29.5531,-94.1969,0036,0.1940
1983-07-01 05:00:00 UTC,2445516.708333,29.5531,-94.1969,0036,0.1780
1983-07-01 05:30:00 UTC,2445516.729167,29.5531,-94.1969,0036,0.1590
1983-07-01 06:00:00 UTC,2445516.750000,29.5531,-94.1969,0036,0.1470
1983-07-01 06:30:00 UTC,2445516.770833,29.5531,-94.1969,0036,0.1440
1983-07-01 07:00:00 UTC,2445516.791667,29.5531,-94.1969,0036,0.1450
1983-07-01 07:30:00 UTC,2445516.812500,29.5531,-94.1969,0036,0.1450
1983-07-01 08:00:00 UTC,2445516.833333,29.5531,-94.1969,0036,0.1450
1983-07-01 08:30:00 UTC,2445516.854167,29.5531,-94.1969,0036,0.1460
1983-07-01 09:00:00 UTC,2445516.875000,29.5531,-94.1969,0036,0.1460
1983-07-01 09:30:00 UTC,2445516.895833,29.5531,-94.1969,0036,0.1440
1983-07-01 10:00:00 UTC,2445516.916667,29.5531,-94.1969,0036,0.1410
1983-07-01 10:30:00 UTC,2445516.937500,29.5531,-94.1969,0036,0.1390
1983-07-01 11:00:00 UTC,2445516.958333,29.5531,-94.1969,0036,0.1400
1983-07-01 11:30:00 UTC,2445516.979167,29.5531,-94.1969,0036,0.1410
1983-07-01 12:00:00 UTC,2445517.000000,29.5531,-94.1969,0036,0.1420
1983-07-01 12:30:00 UTC,2445517.020833,29.5531,-94.1969,0036,0.1420
1983-07-01 13:00:00 UTC,2445517.041667,29.5531,-94.1969,0036,0.1430
1983-07-01 13:30:00 UTC,2445517.062500,29.5531,-94.1969,0036,0.1440
1983-07-01 14:00:00 UTC,2445517.083333,29.5531,-94.1969,0036,0.1450
1983-07-01 14:30:00 UTC,2445517.104167,29.5531,-94.1969,0036,0.1470
1983-07-01 15:00:00 UTC,2445517.125000,29.5531,-94.1969,0036,0.1500
1983-07-01 15:30:00 UTC,2445517.145833,29.5531,-94.1969,0036,0.1600
1983-07-01 16:00:00 UTC,2445517.166667,29.5531,-94.1969,0036,0.1750
1983-07-01 16:30:00 UTC,2445517.187500,29.5531,-94.1969,0036,0.1880
1983-07-01 17:00:00 UTC,2445517.208333,29.5531,-94.1969,0036,0.1960
1983-07-01 17:30:00 UTC,2445517.229167,29.5531,-94.1969,0036,0.0010
1983-07-01 18:00:00 UTC,2445517.250000,29.5531,-94.1969,0036,0.2010
1983-07-01 18:30:00 UTC,2445517.270833,29.5531,-94.1969,0036,0.2030
1983-07-01 19:00:00 UTC,2445517.291667,29.5531,-94.1969,0036,0.2030
1983-07-01 19:30:00 UTC,2445517.312500,29.5531,-94.1969,0036,0.2030
1983-07-01 20:00:00 UTC,2445517.333333,29.5531,-94.1969,0036,0.2020
1983-07-01 20:30:00 UTC,2445517.354167,29.5531,-94.1969,0036,0.2010
1983-07-01 21:00:00 UTC,2445517.375000,29.5531,-94.1969,0036,0.1980
1983-07-01 21:30:00 UTC,2445517.395833,29.5531,-94.1969,0036,0.1940
1983-07-01 22:00:00 UTC,2445517.416667,29.5531,-94.1969,0036,0.1890
1983-07-01 22:30:00 UTC,2445517.437500,29.5531,-94.1969,0036,0.1810
1983-07-01 23:00:00 UTC,2445517.458333,29.5531,-94.1969,0036,0.1730
1983-07-01 23:30:00 UTC,2445517.479167,29.5531,-94.1969,0036,0.1670
1983-07-02 00:00:00 UTC,2445517.500000,29.5531,-94.1969,0036,0.1620
1983-07-02 00:30:00 UTC,2445517.520833,29.5531,-94.1969,0036,0.1590
1983-07-02 01:00:00 UTC,2445517.541667,29.5531,-94.1969,0036,0.1570
1983-07-02 01:30:00 UTC,2445517.562500,29.5531,-94.1969,0036,0.1550
1983-07-02 02:00:00 UTC,2445517.583333,29.5531,-94.1969,0036,0.1560
1983-07-02 02:30:00 UTC,2445517.604167,29.5531,-94.1969,0036,0.1600
1983-07-02 03:00:00 UTC,2445517.625000,29.5531,-94.1969,0036,0.1630
1983-07-02 03:30:00 UTC,2445517.645833,29.5531,-94.1969,0036,0.1650
1983-07-02 04:00:00 UTC,2445517.666667,29.5531,-94.1969,0036,0.1660
1983-07-02 04:30:00 UTC,2445517.687500,29.5531,-94.1969,0036,0.1660
1983-07-02 05:00:00 UTC,2445517.708333,29.5531,-94.1969,0036,0.1660
1983-07-02 05:30:00 UTC,2445517.729167,29.5531,-94.1969,0036,0.1660
1983-07-02 06:00:00 UTC,2445517.750000,29.5531,-94.1969,0036,0.1660
1983-07-02 06:30:00 UTC,2445517.770833,29.5531,-94.1969,0036,0.1650
1983-07-02 07:00:00 UTC,2445517.791667,29.5531,-94.1969,0036,0.1640
1983-07-02 07:30:00 UTC,2445517.812500,29.5531,-94.1969,0036,0.1640
1983-07-02 08:00:00 UTC,2445517.833333,29.5531,-94.1969,0036,0.1630
1983-07-02 08:30:00 UTC,2445517.854167,29.5531,-94.1969,0036,0.1630
1983-07-02 09:00:00 UTC,2445517.875000,29.5531,-94.1969,0036,0.1630
1983-07-02 09:30:00 UTC,2445517.895833,29.5531,-94.1969,0036,0.1630
1983-07-02 10:00:00 UTC,2445517.916667,29.5531,-94.1969,0036,0.1620
1983-07-02 10:30:00 UTC,2445517.937500,29.5531,-94.1969,0036,0.1620
1983-07-02 11:00:00 UTC,2445517.958333,29.5531,-94.1969,0036,0.1620
1983-07-02 11:30:00 UTC,2445517.979167,29.5531,-94.1969,0036,0.1620
1983-07-02 12:00:00 UTC,2445518.000000,29.5531,-94.1969,0036,0.1630
1983-07-02 12:30:00 UTC,2445518.020833,29.5531,-94.1969,0036,0.1630
1983-07-02 13:00:00 UTC,2445518.041667,29.5531,-94.1969,0036,0.1640
1983-07-02 13:30:00 UTC,2445518.062500,29.5531,-94.1969,0036,0.1640
1983-07-02 14:00:00 UTC,2445518.083333,29.5531,-94.1969,0036,0.1650
1983-07-02 14:30:00 UTC,2445518.104167,29.5531,-94.1969,0036,0.1650
1983-07-02 15:00:00 UTC,2445518.125000,29.5531,-94.1969,0036,0.1660
1983-07-02 15:30:00 UTC,2445518.145833,29.5531,-94.1969,0036,0.1670
1983-07-02 16:00:00 UTC,2445518.166667,29.5531,-94.1969,0036,0.1680
1983-07-02 16:30:00 UTC,2445518.187500,29.5531,-94.1969,0036,0.1690
1983-07-02 17:00:00 UTC,2445518.208333,29.5531,-94.1969,0036,0.1690
1983-07-02 17:30:00 UTC,2445518.229167,29.5531,-94.1969,0036,0.1700
1983-07-02 18:00:00 UTC,2445518.250000,29.5531,-94.1969,0036,0.1700
1983-07-02 18:30:00 UTC,2445518.270833,29.5531,-94.1969,0036,0.1710
1983-07-02 19:00:00 UTC,2445518.291667,29.5531,-94.1969,0036,0.1730
1983-07-02 19:30:00 UTC,2445518.312500,29.5531,-94.1969,0036,0.1730
1983-07-02 20:00:00 UTC,2445518.333333,29.5531,-94.1969,0036,0.1730
1983-07-02 20:30:00 UTC,2445518.354167,29.5531,-94.1969,0036,0.1730
1983-07-02 21:00:00 UTC,2445518.375000,29.5531,-94.1969,0036,0.1730
1983-07-02 21:30:00 UTC,2445518.395833,29.5531,-94.1969,0036,0.1720
1983-07-02 22:00:00 UTC,2445518.416667,29.5531,-94.1969,0036,0.1710
1983-07-02 22:30:00 UTC,2445518.437500,29.5531,-94.1969,0036,0.1710
1983-07-02 23:00:00 UTC,2445518.458333,29.5531,-94.1969,0036,0.1710
1983-07-02 23:30:00 UTC,2445518.479167,29.5531,-94.1969,0036,0.1720
1983-07-03 00:00:00 UTC,2445518.500000,29.5531,-94.1969,0036,0.1720
1983-07-03 00:30:00 UTC,2445518.520833,29.5531,-94.1969,0036,0.1720
1983-07-03 01:00:00 UTC,2445518.541667,29.5531,-94.1969,0036,0.1720
1983-07-03 01:30:00 UTC,2445518.562500,29.5531,-94.1969,0036,0.1720
1983-07-03 02:00:00 UTC,2445518.583333,29.5531,-94.1969,0036,0.1730
1983-07-03 02:30:00 UTC,2445518.604167,29.5531,-94.1969,0036,0.1730
1983-07-03 03:00:00 UTC,2445518.625000,29.5531,-94.1969,0036,0.1730
1983-07-03 03:30:00 UTC,2445518.645833,29.5531,-94.1969,0036,0.1740
1983-07-03 04:00:00 UTC,2445518.666667,29.5531,-94.1969,0036,0.1740
1983-07-03 04:30:00 UTC,2445518.687500,29.5531,-94.1969,0036,0.1740
1983-07-03 05:00:00 UTC,2445518.708333,29.5531,-94.1969,0036,0.1740
1983-07-03 05:30:00 UTC,2445518.729167,29.5531,-94.1969,0036,0.1750
1983-07-03 06:00:00 UTC,2445518.750000,29.5531,-94.1969,0036,0.1750
1983-07-03 06:30:00 UTC,2445518.770833,29.5531,-94.1969,0036,0.1750
1983-07-03 07:00:00 UTC,2445518.791667,29.5531,-94.1969,0036,0.1750
1983-07-03 07:30:00 UTC,2445518.812500,29.5531,-94.1969,0036,0.1750
1983-07-03 08:00:00 UTC,2445518.833333,29.5531,-94.1969,0036,0.1750
1983-07-03 08:30:00 UTC,2445518.854167,29.5531,-94.1969,0036,0.1750
1983-07-03 09:00:00 UTC,2445518.875000,29.5531,-94.1969,0036,0.1750
1983-07-03 09:30:00 UTC,2445518.895833,29.5531,-94.1969,0036,0.1750
1983-07-03 10:00:00 UTC,2445518.916667,29.5531,-94.1969,0036,0.1740
1983-07-03 10:30:00 UTC,2445518.937500,29.5531,-94.1969,0036,0.1750
1983-07-03 11:00:00 UTC,2445518.958333,29.5531,-94.1969,0036,0.1770
1983-07-03 11:30:00 UTC,2445518.979167,29.5531,-94.1969,0036,0.1800
1983-07-03 12:00:00 UTC,2445519.000000,29.5531,-94.1969,0036,0.1820
1983-07-03 12:30:00 UTC,2445519.020833,29.5531,-94.1969,0036,0.1840
1983-07-03 13:00:00 UTC,2445519.041667,29.5531,-94.1969,0036,0.1850
1983-07-03 13:30:00 UTC,2445519.062500,29.5531,-94.1969,0036,0.1860
1983-07-03 14:00:00 UTC,2445519.083333,29.5531,-94.1969,0036,0.1860
1983-07-03 14:30:00 UTC,2445519.104167,29.5531,-94.1969,0036,0.1860
1983-07-03 15:00:00 UTC,2445519.125000,29.5531,-94.1969,0036,0.1870
1983-07-03 15:30:00 UTC,2445519.145833,29.5531,-94.1969,0036,0.1870
1983-07-03 16:00:00 UTC,2445519.166667,29.5531,-94.1969,0036,0.1870
1983-07-03 16:30:00 UTC,2445519.187500,29.5531,-94.1969,0036,0.1870
1983-07-03 17:00:00 UTC,2445519.208333,29.5531,-94.1969,0036,0.1880
1983-07-03 17:30:00 UTC,2445519.229167,29.5531,-94.1969,0036,0.1900
1983-07-03 18:00:00 UTC,2445519.250000,29.5531,-94.1969,0036,0.1910
1983-07-03 18:30:00 UTC,2445519.270833,29.5531,-94.1969,0036,0.1900
1983-07-03 19:00:00 UTC,2445519.291667,29.5531,-94.1969,0036,0.1900
1983-07-03 19:30:00 UTC,2445519.312500,29.5531,-94.1969,0036,0.1920
1983-07-03 20:00:00 UTC,2445519.333333,29.5531,-94.1969,0036,0.1940
1983-07-03 20:30:00 UTC,2445519.354167,29.5531,-94.1969,0036,0.1950
1983-07-03 21:00:00 UTC,2445519.375000,29.5531,-94.1969,0036,0.1950
1983-07-03 21:30:00 UTC,2445519.395833,29.5531,-94.1969,0036,0.1950
1983-07-03 22:00:00 UTC,2445519.416667,29.5531,-94.1969,0036,0.1950
1983-07-03 22:30:00 UTC,2445519.437500,29.5531,-94.1969,0036,0.1950
1983-07-03 23:00:00 UTC,2445519.458333,29.5531,-94.1969,0036,0.1950
1983-07-03 23:30:00 UTC,2445519.479167,29.5531,-94.1969,0036,0.1950
1983-07-04 00:00:00 UTC,2445519.500000,29.5531,-94.1969,0036,0.1950
1983-07-04 00:30:00 UTC,2445519.520833,29.5531,-94.1969,0036,0.1950
1983-07-04 01:00:00 UTC,2445519.541667,29.5531,-94.1969,0036,0.1930
1983-07-04 01:30:00 UTC,2445519.562500,29.5531,-94.1969,0036,0.1910
1983-07-04 02:00:00 UTC,2445519.583333,29.5531,-94.1969,0036,0.1900
1983-07-04 02:30:00 UTC,2445519.604167,29.5531,-94.1969,0036,0.1910
1983-07-04 03:00:00 UTC,2445519.625000,29.5531,-94.1969,0036,0.1920
1983-07-04 03:30:00 UTC,2445519.645833,29.5531,-94.1969,0036,0.1920
1983-07-04 04:00:00 UTC,2445519.666667,29.5531,-94.1969,0036,0.1900
1983-07-04 04:30:00 UTC,2445519.687500,29.5531,-94.1969,0036,0.1880
1983-07-04 05:00:00 UTC,2445519.708333,29.5531,-94.1969,0036,0.1900
1983-07-04 05:30:00 UTC,2445519.729167,29.5531,-94.1969,0036,0.1910
1983-07-04 06:00:00 UTC,2445519.750000,29.5531,-94.1969,0036,0.1920
1983-07-04 06:30:00 UTC,2445519.770833,29.5531,-94.1969,0036,0.1910
1983-07-04 07:00:00 UTC,2445519.791667,29.5531,-94.1969,0036,0.1880
1983-07-04 07:30:00 UTC,2445519.812500,29.5531,-94.1969,0036,0.1870
1983-07-04 08:00:00 UTC,2445519.833333,29.5531,-94.1969,0036,0.1870
1983-07-04 08:30:00 UTC,2445519.854167,29.5531,-94.1969,0036,0.1860
1983-07-04 09:00:00 UTC,2445519.875000,29.5531,-94.1969,0036,0.1840
1983-07-04 09:30:00 UTC,2445519.895833,29.5531,-94.1969,0036,0.1840
1983-07-04 10:00:00 UTC,2445519.916667,29.5531,-94.1969,0036,0.1830
1983-07-04 10:30:00 UTC,2445519.937500,29.5531,-94.1969,0036,0.1830
1983-07-04 11:00:00 UTC,2445519.958333,29.5531,-94.1969,0036,0.1830
1983-07-04 11:30:00 UTC,2445519.979167,29.5531,-94.1969,0036,0.1840
1983-07-04 12:00:00 UTC,2445520.000000,29.5531,-94.1969,0036,0.1850
1983-07-04 12:30:00 UTC,2445520.020833,29.5531,-94.1969,0036,0.1860
1983-07-04 13:00:00 UTC,2445520.041667,29.5531,-94.1969,0036,0.1870
1983-07-04 13:30:00 UTC,2445520.062500,29.5531,-94.1969,0036,0.1870
1983-07-04 14:00:00 UTC,2445520.083333,29.5531,-94.1969,0036,0.1850
1983-07-04 14:30:00 UTC,2445520.104167,29.5531,-94.1969,0036,0.1840
1983-07-04 15:00:00 UTC,2445520.125000,29.5531,-94.1969,0036,0.1840
1983-07-04 15:30:00 UTC,2445520.145833,29.5531,-94.1969,0036,0.1850
1983-07-04 16:00:00 UTC,2445520.166667,29.5531,-94.1969,0036,0.1850
1983-07-04 16:30:00 UTC,2445520.187500,29.5531,-94.1969,0036,0.1850
1983-07-04 17:00:00 UTC,2445520.208333,29.5531,-94.1969,0036,0.1830
1983-07-04 17:30:00 UTC,2445520.229167,29.5531,-94.1969,0036,0.1830
1983-07-04 18:00:00 UTC,2445520.250000,29.5531,-94.1969,0036,0.1840
1983-07-04 18:30:00 UTC,2445520.270833,29.5531,-94.1969,0036,0.1840
1983-07-04 19:00:00 UTC,2445520.291667,29.5531,-94.1969,0036,0.1820
1983-07-04 19:30:00 UTC,2445520.312500,29.5531,-94.1969,0036,0.1790
1983-07-04 20:00:00 UTC,2445520.333333,29.5531,-94.1969,0036,0.1790
1983-07-04 20:30:00 UTC,2445520.354167,29.5531,-94.1969,0036,0.1810
1983-07-04 21:00:00 UTC,2445520.375000,29.5531,-94.1969,0036,0.1840
1983-07-04 21:30:00 UTC,2445520.395833,29.5531,-94.1969,0036,0.1860
1983-07-04 22:00:00 UTC,2445520.416667,29.5531,-94.1969,0036,0.1870
1983-07-04 22:30:00 UTC,2445520.437500,29.5531,-94.1969,0036,0.1870
1983-07-04 23:00:00 UTC,2445520.458333,29.5531,-94.1969,0036,0.1870
1983-07-04 23:30:00 UTC,2445520.479167,29.5531,-94.1969,0036,0.1880
1983-07-05 00:00:00 UTC,2445520.500000,29.5531,-94.1969,0036,0.1880
1983-07-05 00:30:00 UTC,2445520.520833,29.5531,-94.1969,0036,0.1870
1983-07-05 01:00:00 UTC,2445520.541667,29.5531,-94.1969,0036,0.1870
1983-07-05 01:30:00 UTC,2445520.562500,29.5531,-94.1969,0036,0.1870
1983-07-05 02:00:00 UTC,2445520.583333,29.5531,-94.1969,0036,0.1870
1983-07-05 02:30:00 UTC,2445520.604167,29.5531,-94.1969,0036,0.1870
1983-07-05 03:00:00 UTC,2445520.625000,29.5531,-94.1969,0036,0.1870
1983-07-05 03:30:00 UTC,2445520.645833,29.5531,-94.1969,0036,0.1870
1983-07-05 04:00:00 UTC,2445520.666667,29.5531,-94.1969,0036,0.1870
1983-07-05 04:30:00 UTC,2445520.687500,29.5531,-94.1969,0036,0.1870
1983-07-05 05:00:00 UTC,2445520.708333,29.5531,-94.1969,0036,0.1880
1983-07-05 05:30:00 UTC,2445520.729167,29.5531,-94.1969,0036,0.1880
1983-07-05 06:00:00 UTC,2445520.750000,29.5531,-94.1969,0036,0.1880
1983-07-05 06:30:00 UTC,2445520.770833,29.5531,-94.1969,0036,0.1870
1983-07-05 07:00:00 UTC,2445520.791667,29.5531,-94.1969,0036,0.1870
1983-07-05 07:30:00 UTC,2445520.812500,29.5531,-94.1969,0036,0.1860
1983-07-05 08:00:00 UTC,2445520.833333,29.5531,-94.1969,0036,0.1820
1983-07-05 08:30:00 UTC,2445520.854167,29.5531,-94.1969,0036,0.1780
1983-07-05 09:00:00 UTC,2445520.875000,29.5531,-94.1969,0036,0.1760
1983-07-05 09:30:00 UTC,2445520.895833,29.5531,-94.1969,0036,0.1760
1983-07-05 10:00:00 UTC,2445520.916667,29.5531,-94.1969,0036,0.1770
1983-07-05 10:30:00 UTC,2445520.937500,29.5531,-94.1969,0036,0.1790
1983-07-05 11:00:00 UTC,2445520.958333,29.5531,-94.1969,0036,0.1820
1983-07-05 11:30:00 UTC,2445520.979167,29.5531,-94.1969,0036,0.1830
1983-07-05 12:00:00 UTC,2445521.000000,29.5531,-94.1969,0036,0.1820
1983-07-05 12:30:00 UTC,2445521.020833,29.5531,-94.1969,0036,0.1830
1983-07-05 13:00:00 UTC,2445521.041667,29.5531,-94.1969,0036,0.1840
1983-07-05 13:30:00 UTC,2445521.062500,29.5531,-94.1969,0036,0.1850
1983-07-05 14:00:00 UTC,2445521.083333,29.5531,-94.1969,0036,0.1860
1983-07-05 14:30:00 UTC,2445521.104167,29.5531,-94.1969,0036,0.1870
1983-07-05 15:00:00 UTC,2445521.125000,29.5531,-94.1969,0036,0.1880
1983-07-05 15:30:00 UTC,2445521.145833,29.5531,-94.1969,0036,0.1880
1983-07-05 16:00:00 UTC,2445521.166667,29.5531,-94.1969,0036,0.1880
1983-07-05 16:30:00 UTC,2445521.187500,29.5531,-94.1969,0036,0.1880
1983-07-05 17:00:00 UTC,2445521.208333,29.5531,-94.1969,0036,0.1890
1983-07-05 17:30:00 UTC,2445521.229167,29.5531,-94.1969,0036,0.1910
1983-07-05 18:00:00 UTC,2445521.250000,29.5531,-94.1969,0036,0.1920
1983-07-05 18:30:00 UTC,2445521.270833,29.5531,-94.1969,0036,0.1940
1983-07-05 19:00:00 UTC,2445521.291667,29.5531,-94.1969,0036,0.1940
1983-07-05 19:30:00 UTC,2445521.312500,29.5531,-94.1969,0036,0.1950
1983-07-05 20:00:00 UTC,2445521.333333,29.5531,-94.1969,0036,0.1940
1983-07-05 20:30:00 UTC,2445521.354167,29.5531,-94.1969,0036,0.1920
1983-07-05 21:00:00 UTC,2445521.375000,29.5531,-94.1969,0036,0.1910
1983-07-05 21:30:00 UTC,2445521.395833,29.5531,-94.1969,0036,0.1920
1983-07-05 22:00:00 UTC,2445521.416667,29.5531,-94.1969,0036,0.1920
1983-07-05 22:30:00 UTC,2445521.437500,29.5531,-94.1969,0036,0.1890
1983-07-05 23:00:00 UTC,2445521.458333,29.5531,-94.1969,0036,0.1880
1983-07-05 23:30:00 UTC,2445521.479167,29.5531,-94.1969,0036,0.1880
1983-07-06 00:00:00 UTC,2445521.500000,29.5531,-94.1969,0036,0.1900
1983-07-06 00:30:00 UTC,2445521.520833,29.5531,-94.1969,0036,0.1920
1983-07-06 01:00:00 UTC,2445521.541667,29.5531,-94.1969,0036,0.1910
1983-07-06 01:30:00 UTC,2445521.562500,29.5531,-94.1969,0036,0.1880
1983-07-06 02:00:00 UTC,2445521.583333,29.5531,-94.1969,0036,0.1890
1983-07-06 02:30:00 UTC,2445521.604167,29.5531,-94.1969,0036,0.1910
1983-07-06 03:00:00 UTC,2445521.625000,29.5531,-94.1969,0036,0.1930
1983-07-06 03:30:00 UTC,2445521.645833,29.5531,-94.1969,0036,0.1950
1983-07-06 04:00:00 UTC,2445521.666667,29.5531,-94.1969,0036,0.1980
1983-07-06 04:30:00 UTC,2445521.687500,29.5531,-94.1969,0036,0.2010
1983-07-06 05:00:00 UTC,2445521.708333,29.5531,-94.1969,0036,0.2050
1983-07-06 05:30:00 UTC,2445521.729167,29.5531,-94.1969,0036,0.2080
1983-07-06 06:00:00 UTC,2445521.750000,29.5531,-94.1969,0036,0.2100
1983-07-06 06:30:00 UTC,2445521.770833,29.5531,-94.1969,0036,0.2110
1983-07-06 07:00:00 UTC,2445521.791667,29.5531,-94.1969,0036,0.2110
1983-07-06 07:30:00 UTC,2445521.812500,29.5531,-94.1969,0036,0.2110
1983-07-06 08:00:00 UTC,2445521.833333,29.5531,-94.1969,0036,0.2110
1983-07-06 08:30:00 UTC,2445521.854167,29.5531,-94.1969,0036,0.2110
1983-07-06 09:00:00 UTC,2445521.875000,29.5531,-94.1969,0036,0.2120
1983-07-06 09:30:00 UTC,2445521.895833,29.5531,-94.1969,0036,0.2120
1983-07-06 10:00:00 UTC,2445521.916667,29.5531,-94.1969,0036,0.2120
1983-07-06 10:30:00 UTC,2445521.937500,29.5531,-94.1969,0036,0.2120
1983-07-06 11:00:00 UTC,2445521.958333,29.5531,-94.1969,0036,0.2120
1983-07-06 11:30:00 UTC,2445521.979167,29.5531,-94.1969,0036,0.2130
1983-07-06 12:00:00 UTC,2445522.000000,29.5531,-94.1969,0036,0.2130
1983-07-06 12:30:00 UTC,2445522.020833,29.5531,-94.1969,0036,0.2130
1983-07-06 13:00:00 UTC,2445522.041667,29.5531,-94.1969,0036,0.2120
1983-07-06 13:30:00 UTC,2445522.062500,29.5531,-94.1969,0036,0.2130
1983-07-06 14:00:00 UTC,2445522.083333,29.5531,-94.1969,0036,0.2130
1983-07-06 14:30:00 UTC,2445522.104167,29.5531,-94.1969,0036,0.2140
1983-07-06 15:00:00 UTC,2445522.125000,29.5531,-94.1969,0036,0.2140
1983-07-06 15:30:00 UTC,2445522.145833,29.5531,-94.1969,0036,0.2140
1983-07-06 16:00:00 UTC,2445522.166667,29.5531,-94.1969,0036,0.2150
1983-07-06 16:30:00 UTC,2445522.187500,29.5531,-94.1969,0036,0.2150
1983-07-06 17:00:00 UTC,2445522.208333,29.5531,-94.1969,0036,0.2160
1983-07-06 17:30:00 UTC,2445522.229167,29.5531,-94.1969,0036,0.2160
1983-07-06 18:00:00 UTC,2445522.250000,29.5531,-94.1969,0036,0.2170
1983-07-06 18:30:00 UTC,2445522.270833,29.5531,-94.1969,0036,0.2170
1983-07-06 19:00:00 UTC,2445522.291667,29.5531,-94.1969,0036,0.2170
1983-07-06 19:30:00 UTC,2445522.312500,29.5531,-94.1969,0036,0.2180
1983-07-06 20:00:00 UTC,2445522.333333,29.5531,-94.1969,0036,0.2170
1983-07-06 20:30:00 UTC,2445522.354167,29.5531,-94.1969,0036,0.2160
1983-07-06 21:00:00 UTC,2445522.375000,29.5531,-94.1969,0036,0.2130
1983-07-06 21:30:00 UTC,2445522.395833,29.5531,-94.1969,0036,0.2120
1983-07-06 22:00:00 UTC,2445522.416667,29.5531,-94.1969,0036,0.2140
1983-07-06 22:30:00 UTC,2445522.437500,29.5531,-94.1969,0036,0.2150
1983-07-06 23:00:00 UTC,2445522.458333,29.5531,-94.1969,0036,0.2160
1983-07-06 23:30:00 UTC,2445522.479167,29.5531,-94.1969,0036,0.2150
1983-07-07 00:00:00 UTC,2445522.500000,29.5531,-94.1969,0036,0.2150
1983-07-07 00:30:00 UTC,2445522.520833,29.5531,-94.1969,0036,0.2140
1983-07-07 01:00:00 UTC,2445522.541667,29.5531,-94.1969,0036,0.2120
1983-07-07 01:30:00 UTC,2445522.562500,29.5531,-94.1969,0036,0.2100
1983-07-07 02:00:00 UTC,2445522.583333,29.5531,-94.1969,0036,0.2100
1983-07-07 02:30:00 UTC,2445522.604167,29.5531,-94.1969,0036,0.2120
1983-07-07 03:00:00 UTC,2445522.625000,29.5531,-94.1969,0036,0.2140
1983-07-07 03:30:00 UTC,2445522.645833,29.5531,-94.1969,0036,0.2130
1983-07-07 04:00:00 UTC,2445522.666667,29.5531,-94.1969,0036,0.2120
1983-07-07 04:30:00 UTC,2445522.687500,29.5531,-94.1969,0036,0.2110
1983-07-07 05:00:00 UTC,2445522.708333,29.5531,-94.1969,0036,0.2120
1983-07-07 05:30:00 UTC,2445522.729167,29.5531,-94.1969,0036,0.2130
1983-07-07 06:00:00 UTC,2445522.750000,29.5531,-94.1969,0036,0.2140
1983-07-07 06:30:00 UTC,2445522.770833,29.5531,-94.1969,0036,0.2150
1983-07-07 07:00:00 UTC,2445522.791667,29.5531,-94.1969,0036,0.2150
1983-07-07 07:30:00 UTC,2445522.812500,29.5531,-94.1969,0036,0.2150
1983-07-07 08:00:00 UTC,2445522.833333,29.5531,-94.1969,0036,0.2150
1983-07-07 08:30:00 UTC,2445522.854167,29.5531,-94.1969,0036,0.2120
1983-07-07 09:00:00 UTC,2445522.875000,29.5531,-94.1969,0036,0.2100
1983-07-07 09:30:00 UTC,2445522.895833,29.5531,-94.1969,0036,0.2070
1983-07-07 10:00:00 UTC,2445522.916667,29.5531,-94.1969,0036,0.2020
1983-07-07 10:30:00 UTC,2445522.937500,29.5531,-94.1969,0036,0.1970
1983-07-07 11:00:00 UTC,2445522.958333,29.5531,-94.1969,0036,0.1930
1983-07-07 11:30:00 UTC,2445522.979167,29.5531,-94.1969,0036,0.1890
1983-07-07 12:00:00 UTC,2445523.000000,29.5531,-94.1969,0036,0.1860
1983-07-07 12:30:00 UTC,2445523.020833,29.5531,-94.1969,0036,0.1850
1983-07-07 13:00:00 UTC,2445523.041667,29.5531,-94.1969,0036,0.1820
1983-07-07 13:30:00 UTC,2445523.062500,29.5531,-94.1969,0036,0.1800
1983-07-07 14:00:00 UTC,2445523.083333,29.5531,-94.1969,0036,0.1790
1983-07-07 14:30:00 UTC,2445523.104167,29.5531,-94.1969,0036,0.1790
1983-07-07 15:00:00 UTC,2445523.125000,29.5531,-94.1969,0036,0.1790
1983-07-07 15:30:00 UTC,2445523.145833,29.5531,-94.1969,0036,0.1790
1983-07-07 16:00:00 UTC,2445523.166667,29.5531,-94.1969,0036,0.1790
1983-07-07 16:30:00 UTC,2445523.187500,29.5531,-94.1969,0036,0.1790
1983-07-07 17:00:00 UTC,2445523.208333,29.5531,-94.1969,0036,0.1770
1983-07-07 17:30:00 UTC,2445523.229167,29.5531,-94.1969,0036,0.1730
1983-07-07 18:00:00 UTC,2445523.250000,29.5531,-94.1969,0036,0.1680
1983-07-07 18:30:00 UTC,2445523.270833,29.5531,-94.1969,0036,0.1640
1983-07-07 19:00:00 UTC,2445523.291667,29.5531,-94.1969,0036,0.1620
1983-07-07 19:30:00 UTC,2445523.312500,29.5531,-94.1969,0036,0.1580
1983-07-07 20:00:00 UTC,2445523.333333,29.5531,-94.1969,0036,0.1540
1983-07-07 20:30:00 UTC,2445523.354167,29.5531,-94.1969,0036,0.1510
1983-07-07 21:00:00 UTC,2445523.375000,29.5531,-94.1969,0036,0.1520
1983-07-07 21:30:00 UTC,2445523.395833,29.5531,-94.1969,0036,0.1510
1983-07-07 22:00:00 UTC,2445523.416667,29.5531,-94.1969,0036,0.1510
1983-07-07 22:30:00 UTC,2445523.437500,29.5531,-94.1969,0036,0.1490
1983-07-07 23:00:00 UTC,2445523.458333,29.5531,-94.1969,0036,0.1460
1983-07-07 23:30:00 UTC,2445523.479167,29.5531,-94.1969,0036,0.1430
1983-07-08 00:00:00 UTC,2445523.500000,29.5531,-94.1969,0036,0.1410
1983-07-08 00:30:00 UTC,2445523.520833,29.5531,-94.1969,0036,0.1400
1983-07-08 01:00:00 UTC,2445523.541667,29.5531,-94.1969,0036,0.1380
1983-07-08 01:30:00 UTC,2445523.562500,29.5531,-94.1969,0036,0.1370
1983-07-08 02:00:00 UTC,2445523.583333,29.5531,-94.1969,0036,0.1360
1983-07-08 02:30:00 UTC,2445523.604167,29.5531,-94.1969,0036,0.1360
1983-07-08 03:00:00 UTC,2445523.625000,29.5531,-94.1969,0036,0.1360